Weather History for CWHT - December, 2012

Change the Weather History Date:

Wednesday, December 5, 2012

  Actual Average Record
Temperature  
Mean Temperature -24 °F -  
Max Temperature -18 °F - - ()
Min Temperature -30 °F - - ()
Degree Days  
Heating Degree Days 88    
Moisture  
Dew Point -32 °F    
Average Humidity 64    
Maximum Humidity 70    
Minimum Humidity 46    
Precipitation  
Precipitation 0.00 in - - ()
Sea Level Pressure  
Sea Level Pressure 29.94 in    
Wind  
Wind Speed 1 mph ()    
Max Wind Speed 2 mph    
Max Gust Speed -    
T = Trace of Precipitation, MM = Missing Value Source: Averaged Metar Reports

Daily Weather History Graph

Daily Weather History Graph

Search for Another Location

Airport or City:

Trip Planner

Search our weather history database for the weather conditions in past years. The results will help you decide how hot, cold, wet, or windy it might be!

Date:

Astronomy

Dec. 05, 2012 Rise Set
Actual Time 10:01 AM PST 4:00 PM PST
Civil Twilight 9:03 AM PST 4:58 PM PST
Nautical Twilight 8:05 AM PST 5:56 PM PST
Astronomical Twilight 7:13 AM PST 6:48 PM PST
Moon No Moon Rise 1:03 PM PST
Length of Visible Light 7h 55m
Length of Day
5h 59m
Waning Gibbous, 58% of the Moon is Illuminated
Dec 5
Waning Gibbous
Dec 6
Last Quarter
Dec 13
New
Dec 19
First Quarter
Dec 28
Full

Hourly Weather History & Observations

Time (PST) Temp. Dew Point Humidity Pressure Visibility Wind Dir Wind Speed Gust Speed Precip Events Conditions
1:00 AM -25.8 °F -33.7 °F 66% 29.85 in - East 2.3 mph - N/A   Unknown
2:00 AM -24.5 °F -32.4 °F 66% 29.85 in - NNE 1.2 mph - N/A   Unknown
3:00 AM -23.6 °F -31.4 °F 67% 29.85 in - ENE 2.3 mph - N/A   Unknown
4:00 AM -23 °F -31 °F 48% 29.86 in - North 2.3 mph - -  
4:00 AM -23.4 °F -31.4 °F 66% 29.86 in - North 2.3 mph - N/A   Unknown
7:00 AM -23.6 °F -31.4 °F 67% 29.89 in - Calm Calm - N/A   Unknown
8:00 AM -24.5 °F -32.3 °F 67% 29.91 in - ENE 1.2 mph - N/A   Unknown
9:00 AM -24.0 °F -31.9 °F 66% 29.92 in - ENE 1.2 mph - N/A   Unknown
10:00 AM -24 °F -32 °F 50% 29.93 in - Calm Calm - -  
10:00 AM -23.8 °F -31.7 °F 66% 29.93 in - Calm Calm - N/A   Unknown
11:00 AM -23.6 °F -31.7 °F 66% 29.96 in - ENE 1.2 mph - N/A   Unknown
12:00 PM -21.3 °F -29.0 °F 67% 29.96 in - Calm Calm - N/A   Unknown
1:00 PM -18.8 °F -26.9 °F 66% 29.96 in - ENE 1.2 mph - N/A   Unknown
2:00 PM -18.0 °F -26.1 °F 67% 29.97 in - Calm Calm - N/A   Unknown
3:00 PM -19.5 °F -26.7 °F 70% 29.97 in - NNE 1.2 mph - N/A   Unknown
4:00 PM -22 °F -30 °F 52% 29.98 in - North 1.2 mph - -  
4:00 PM -22.4 °F -29.6 °F 69% 29.98 in - North 1.2 mph - N/A   Unknown
5:00 PM -24.9 °F -33.2 °F 65% 29.98 in - NE 1.2 mph - N/A   Unknown
6:00 PM -26.9 °F -34.6 °F 67% 29.99 in - ENE 1.2 mph - N/A   Unknown
7:00 PM -27.6 °F -35.0 °F 68% 29.99 in - Calm Calm - N/A   Unknown
8:00 PM -29.0 °F -37.3 °F 65% 30.00 in - Calm Calm - N/A   Unknown
9:00 PM -29.4 °F -37.8 °F 64% 30.00 in - ENE 1.2 mph - N/A   Unknown
10:00 PM -29 °F -37 °F 46% 30.01 in - NNE 1.2 mph - -  
10:00 PM -29.0 °F -37.3 °F 65% 30.01 in - NNE 1.2 mph - N/A   Unknown
11:00 PM -30.3 °F -38.6 °F 64% 30.01 in - ENE 1.2 mph - N/A   Unknown